Regional Weather Roundup
Issued by NWS

Home | Current Version | Previous Version | Text Only | Print | Product List | Glossary Off
Versions: 1 2 3 4 5 6 7 8 9 10 11 12 13 14 15 16 17 18 19 20 21 22 23 24 25 26 27 28 29 30 31 32 33 34 35 36 37 38 39 40 41 42 43 44 45 46 47 48 49 50

000
ASUS43 KDTX 282101
RWRMI
MICHIGAN HOURLY REGIONAL WEATHER ROUNDUP
NATIONAL WEATHER SERVICE DETROIT/PONTIAC MI
500 PM EDT MON JUL 28 2014

NOTE: "FAIR" INDICATES FEW OR NO CLOUDS BELOW 12,000 FEET WITH NO
SIGNIFICANT WEATHER AND/OR OBSTRUCTION TO VISIBILITY.

MIZ047>049-052>055-059>063-066>070-074>076-081>083-282200-
SOUTHEAST LOWER MICHIGAN

CITY           SKY/WX    TMP DP  RH WIND       PRES   REMARKS
ADRIAN         PTSUNNY   70  52  52 N12       29.96R
ALMA           PTSUNNY   64  47  54 N13G22    30.00R
ANN ARBOR      CLOUDY    68  49  50 N13G20    29.95S HAZE
BAD AXE        CLOUDY    60  44  54 N16G22    29.98R
CARO           CLOUDY    62  52  71 N8        29.98R
DETROIT CITY   CLOUDY    69  49  48 N13G21    29.94R
DETROIT        CLOUDY    66  52  60 NW13      29.95R
FLINT          CLOUDY    64  51  62 NE12      29.97R
GROSSE ILE     CLOUDY    70  52  52 N12       29.93R
HILLSDALE      CLOUDY    68  53  59 N10       29.97S
HOWELL         PTSUNNY   64  49  57 NW10      29.96S

CITY           SKY/WX    TMP DP  RH WIND       PRES   REMARKS
JACKSON        PTSUNNY   67  54  63 VRB5      29.97R
LAMBERTVILLE   CLOUDY    70  52  52 NW9       29.95R
LANSING        PTSUNNY   68  50  52 NW9       29.98R
LAPEER         CLOUDY    60  49  66 N8G16     29.98R
MASON          CLOUDY    65  51  60 N8        29.97S
MONROE         SUNNY     70  54  56 N14       29.93R
MT. CLEMENS    CLOUDY    62  51  67 N17       29.94R
PONTIAC        PTSUNNY   62  50  64 N15       29.96R
PORT HOPE        N/A     62  49  62 VRB3      29.96S
PORT HURON     CLOUDY    61  52  72 NW10G16   29.96R
TRI CITIES     PTSUNNY   65  47  52 N15       30.00R
TROY           CLOUDY    64  51  62 N10       29.96R
SAGINAW HB     MOSUNNY   63  48  59 N10G18    29.98S
$$
MIZ043>046-050>051-056>058-064>065-071>073-077>080-282200-
SOUTHWEST LOWER MICHIGAN

CITY           SKY/WX    TMP DP  RH WIND       PRES   REMARKS
BATTLE CREEK   CLOUDY    68  52  56 W13       29.99S
BENTON HARBOR  MOSUNNY   59  49  69 N8        30.05F
BIG RAPIDS     PTSUNNY   63  46  54 N7        30.01S
COLDWATER      SUNNY     70  52  53 N13G22    29.98S
FREMONT        FAIR      67  43  42 N12G18    30.02S
HOLLAND        SUNNY     62  49  62 NW15      30.04R
GRAND RAPIDS   PTSUNNY   69  50  50 NW13      30.00R
IONIA          MOCLDY    65  50  57 N9G20     29.99R
KALAMAZOO      PTSUNNY   67  52  58 W14       30.00S
LUDINGTON      SUNNY     62  48  59 N9G18     30.07R
MARSHALL       CLOUDY    67  52  60 W10       29.97S
MOUNT PLEASANT CLOUDY    62  47  58 N13       30.01R
MUSKEGON       PTSUNNY   66  50  56 NW13G18   30.03R
SOUTH HAVEN    SUNNY     58  51  77 N10G22    30.05S
$$
MIZ016>042-282200-
NORTHERN LOWER MICHIGAN

CITY           SKY/WX    TMP DP  RH WIND       PRES   REMARKS
ALPENA         PTSUNNY   64  46  52 N17       29.98S
BEAVER ISLAND  MOSUNNY   68  49  51 NW6       30.01F
BELLAIRE       CLOUDY    64  47  54 W5        30.01F
CADILLAC       CLOUDY    62  48  59 N12G22    30.02S
CHARLEVOIX     MOSUNNY   65  50  58 W10       30.05S
FRANKFORT      SUNNY     65  45  49 N7        30.05S
GAYLORD        CLOUDY    61  46  57 NW7       30.01F
GRAYLING       CLOUDY    62  46  56 NW12G17   30.01F
HARBOR SPRINGS CLOUDY    67  45  46 NW7G18    30.00S
HOUGHTON LAKE  CLOUDY    62  46  55 N7        30.01F
MANISTEE       SUNNY     61  46  59 NW10      30.06S
OSCODA         CLOUDY    65  45  49 NW12      29.97S
PELLSTON       CLOUDY    67  47  48 N8        30.00F
ROGERS CITY    PTSUNNY   64  50  60 NW12      29.99F
TRAVERSE CITY  MOSUNNY   65  46  50 NE9       30.02F
$$
MIZ007>008-015-282200-
EASTERN UPPER MICHIGAN

CITY           SKY/WX    TMP DP  RH WIND       PRES   REMARKS
KINROSS        SUNNY     64  46  52 NW17G23   29.99S
MACKINAC ISLAN MOSUNNY   66  46  48 N12       29.99F
NEWBERRY       MOSUNNY   65  48  55 NW9G22    30.01S
S. S. MARIE    SUNNY     61  43  51 NW15G22   29.99F
MUNISING         N/A     67  50  54 NW7       30.03F
$$
MIZ004>006-011>014-085-282200-
CENTRAL UPPER MICHIGAN

CITY           SKY/WX    TMP DP  RH WIND       PRES   REMARKS
MANISTIQUE     SUNNY     71  49  45 N14G20    30.01S
ESCANABA       MOSUNNY   72  46  40 N12G20    30.03S
MENOMINEE      CLOUDY    66  52  59 SW6       30.04R
SAWYER-GWINN   SUNNY     68  48  49 NE8       30.04F
$$
MIZ001>003-009>011-084-282200-
WESTERN UPPER MICHIGAN

CITY           SKY/WX    TMP DP  RH WIND       PRES   REMARKS
IRON MOUNTAIN  PTSUNNY   72  48  42 NW16G23   30.05S
COPPER HARBOR    N/A     67  53  61 N12       30.01F
$$

ABBREVIATIONS USED IN REMARKS
   TC - TEMPERATURE IN CELSIUS
  WCI - WIND CHILL INDEX
   HX - HEAT INDEX
  VSB - VISIBILITY




USA.gov is the U.S. government's official web portal to all federal, state and local government web resources and services.